Location: Croisilles
(50.1998°N, 2.8793°E)
Time: 19:25:34
(UTC+00:00)

Cosmos 1503 Rocket - Pass Details

Date: 21 January 2021
Orbit: 752 x 791 km, 74.0° (Epoch: 02 March)

Event Time Altitude Azimuth Distance (km) Brightness Sun altitude
Rises 17:19:43 0° 210° (SSW) 3,269 8.1 -8.9°
Reaches altitude 10° 17:22:07 10° 212° (SSW) 2,348 7.4 -9.2°
Maximum altitude 17:27:27 69° 296° (WNW) 848 4.4 -10.0°
Drops below altitude 10° 17:32:50 10° 20° (NNE) 2,367 6.2 -10.9°
Enters shadow 17:34:54 - 23° (NNE) 3,163 6.8 -11.2°
